ARIANE 5 R/B

基本信息
目录编号:
57216
目录名称:
ARIANE 5 R/B
国际标识:
2023-093D
轨道中心:
EARTH
物体状态:
在轨
发射日期:
2023-07-05 UTC
国别:
法国 (FR)
轨道信息
数据来源: 国际轨道数据
星历时间: 2026-07-13T20:51:52+0800
半长轴: 23730.588km
偏心率: 0.7183702
轨道倾角: 3.022°
近地点辐角: 19.262°
升交点赤经: 347.919°
平近点角: 357.716°
近地点: 305.103km
远地点: 34399.799km
周期: 606.349分钟
每日圈数: 2.374871
详细信息
发射场:
FRGUI
轨道高度:
LEO
数据来源:
AOE Integration Group
参考系:
TEME
时间系统:
UTC
历元类型:
SGP4
2D轨道图
3D轨道图
轨道高度分析图
轨道倾角分析图
轨道综合分析图
查看轨道综合分析图